Regional Weather Roundup
Issued by NWS Goodland, KS

Home | Current Version | Previous Version | Graphics & Text | Print | Product List | Glossary On
Versions: 1 2 3 4 5 6 7 8 9 10 11 12 13 14 15 16 17 18 19 20 21 22 23 24 25 26 27 28 29 30 31 32 33 34 35 36 37 38 39 40 41 42 43 44 45 46 47 48 49 50
000
ASUS43 KGLD 041708
RWRGLD

GOODLAND FORECAST AREA HOURLY WEATHER ROUNDUP
NATIONAL WEATHER SERVICE GOODLAND KS
1100 AM MDT SAT JUL 04 2015

...OFFICIAL OBSERVATIONS...

CITY           SKY/WX    TMP DP  RH WIND       PRES   REMARKS
GOODLAND KS    SUNNY     83  62  49 S20G25    29.97S
HILL CITY KS   LGT RAIN  86  63  45 S14G24    29.96F
IMPERIAL NEB   SUNNY     85  61  44 SE15      29.94F
MCCOOK NEB     MOSUNNY   86  62  44 S15       29.94F
AKRON CO       SUNNY     85  54  34 S10       29.98F
BURLINGTON CO  SUNNY     82  60  47 S16       29.99F
LIMON CO       SUNNY     79  55  43 S15G22    30.05F
$$

...UNOFFICIAL OBSERVATIONS...

CITY           SKY/WX    TMP DP  RH WIND       PRES   REMARKS
COLBY KS       SUNNY     86  64  48 S18G28    29.97S
GOVE KS          N/A     84  32  15 MISG        N/A
NORTON KS      SUNNY     82  57  42 SE13G20   29.96R
SHARON SPRINGS   N/A     84  64  50 S12G20      N/A
KIT CARSON CO    N/A     80  61  51 MISG        N/A
$$



USA.gov is the U.S. government's official web portal to all federal, state and local government web resources and services.